Location: West Sayville
(40.7279°N, 73.0976°W)
Time: 05:25:48
(UTC+00:00)

USA 308 - Pass Details

Date: 29 October 2020
Orbit: 571 x 578 km, 54.0° (Epoch: 23 November)

Event Time Altitude Azimuth Distance (km) Brightness Sun altitude
Rises 23:33:06 0° 312° (NW) 2,784 7.1 -19.7°
Reaches altitude 10° 23:35:23 10° 316° (NW) 1,882 6.1 -20.2°
Maximum altitude 23:39:38 61° 37° (NE) 652 2.9 -21.0°
Enters shadow 23:39:53 60° 57° (ENE) 660 2.9 -21.0°
